Location: Unspecified
(0.0000°N, 0.0000°E)
Time: 01:06:31
(UTC+00:00)

CUTE 1.7 + AOD 2 - Pass Details

Date: 08 December 2017
Orbit: 595 x 612 km, 97.5° (Epoch: 19 July)

Event Time Altitude Azimuth Distance (km) Brightness Sun altitude
Rises 19:36:14 0° 202° (SSW) 2,835 ? -23.9°
Reaches altitude 10° 19:39:25 10° 229° (SW) 1,932 ? -24.6°
Maximum altitude 19:41:28 13° 258° (WSW) 1,718 ? -25.0°
Drops below altitude 10° 19:43:31 10° 288° (WNW) 1,932 ? -25.5°
Sets 19:46:43 0° 315° (NW) 2,833 ? -26.2°
